GW3820 Weather Reports


time (UTC)temp
C
wind
direction
speed
KPH
gust
KPH
rain 1hr
cm
rain 24hr
cm
rain mn
cm
humidity
%
barometer
mb
20260509002817 15 204 1.6 6.4 0.00 0.00 0.00 64 1007.1
20260509001818 15 226 3.2 6.4 0.00 0.00 0.00 63 1007.1
20260509000816 16 230 11.3 16.1 0.00 0.00 0.00 61 1007.0
20260508235837 16 269 3.2 6.4 0.00 0.00 0.00 58 1006.9
20260508234817 16 231 4.8 14.5 0.00 0.00 0.00 57 1006.9
20260508233858 16 247 3.2 16.1 0.00 0.00 0.00 58 1006.9
20260508232818 17 244 6.4 9.7 0.00 0.00 0.00 57 1006.9
20260508231818 17 236 4.8 9.7 0.00 0.00 0.00 58 1006.8
20260508230817 17 241 9.7 20.9 0.00 0.00 0.00 57 1006.8
20260508225837 17 227 3.2 4.8 0.00 0.00 0.00 59 1006.8
20260508224816 17 215 3.2 6.4 0.00 0.00 0.00 59 1006.8
20260508223817 17 233 4.8 14.5 0.00 0.00 0.00 59 1006.8
20260508222817 17 257 6.4 14.5 0.00 0.00 0.00 60 1006.9
20260508221837 17 186 6.4 9.7 0.00 0.00 0.00 56 1007.0
20260508220817 17 215 6.4 12.9 0.00 0.00 0.00 53 1006.7
20260508215817 18 232 6.4 19.3 0.00 0.00 0.00 48 1007.0
20260508214818 17 247 9.7 20.9 0.00 0.00 0.00 46 1007.0
20260508213817 17 249 4.8 11.3 0.00 0.00 0.00 47 1007.1
20260508212816 18 239 6.4 12.9 0.00 0.00 0.00 44 1007.2
20260508211818 19 231 3.2 8.0 0.00 0.00 0.00 42 1007.2
20260508210815 18 218 6.4 20.9 0.00 0.00 0.00 44 1007.2
20260508205815 17 253 1.6 3.2 0.00 0.00 0.00 55 1007.2
20260508204835 16 121 3.2 8.0 0.00 0.00 0.00 60 1007.4
20260508203815 16 108 6.4 9.7 0.00 0.00 0.00 59 1007.4
20260508202855 16 93 4.8 12.9 0.00 0.00 0.00 61 1007.6
20260508201815 16 106 4.8 11.3 0.00 0.00 0.00 62 1007.7
20260508200835 15 169 6.4 16.1 0.00 0.00 0.00 61 1007.9
20260508195815 16 123 3.2 6.4 0.00 0.00 0.00 61 1008.2
20260508194815 16 206 4.8 12.9 0.00 0.00 0.00 56 1008.2
20260508193815 17 105 9.7 17.7 0.00 0.00 0.00 59 1008.3
20260508192815 16 109 4.8 12.9 0.00 0.00 0.00 58 1008.6
20260508191815 17 319 1.6 6.4 0.00 0.00 0.00 57 1008.8
20260508190815 17 200 4.8 12.9 0.00 0.00 0.00 53 1008.9
20260508185815 17 268 6.4 11.3 0.00 0.00 0.00 52 1009.0
20260508184815 16 80 3.2 11.3 0.00 0.00 0.00 52 1009.1
20260508183815 18 250 4.8 6.4 0.00 0.00 0.00 51 1009.1
20260508182815 18 97 3.2 9.7 0.00 0.00 0.00 50 1009.3
20260508181815 17 193 4.8 6.4 0.00 0.00 0.00 49 1009.4
20260508180837 17 244 6.4 16.1 0.00 0.00 0.00 47 1009.4
20260508175836 17 228 8.0 12.9 0.00 0.00 0.00 46 1009.6
20260508174838 16 286 8.0 16.1 0.00 0.00 0.00 45 1009.7
20260508173818 17 242 8.0 16.1 0.00 0.00 0.00 44 1009.9
20260508172816 16 158 4.8 12.9 0.00 0.00 0.00 44 1010.2
20260508171817 16 221 12.9 19.3 0.00 0.00 0.00 46 1010.3
20260508170817 16 285 4.8 11.3 0.00 0.00 0.00 49 1010.4
20260508165817 16 93 8.0 14.5 0.00 0.00 0.00 54 1010.5
20260508164818 16 253 1.6 6.4 0.00 0.00 0.00 52 1010.8
20260508163816 15 223 9.7 14.5 0.00 0.00 0.00 51 1011.0
20260508162818 15 270 6.4 12.9 0.00 0.00 0.00 52 1011.1
20260508161817 16 189 4.8 6.4 0.00 0.00 0.00 51 1011.3
20260508160817 15 289 3.2 6.4 0.00 0.00 0.00 51 1011.3
20260508155817 15 327 4.8 12.9 0.00 0.00 0.00 51 1011.3
20260508154817 14 238 3.2 9.7 0.00 0.00 0.00 50 1011.4
20260508153838 15 46 1.6 4.8 0.00 0.00 0.00 54 1011.3
20260508152818 14 310 1.6 8.0 0.00 0.00 0.00 53 1011.2
20260508151816 13 26 9.7 14.5 0.00 0.00 0.00 53 1011.4
20260508150817 14 235 1.6 4.8 0.00 0.00 0.00 54 1011.4
20260508145815 13 94 1.6 6.4 0.00 0.00 0.00 55 1011.5
20260508144815 13 90 3.2 9.7 0.00 0.00 0.00 55 1011.5
20260508143856 13 82 6.4 11.3 0.00 0.00 0.00 56 1011.7
20260508142815 12 272 3.2 4.8 0.00 0.00 0.00 60 1011.8
20260508141815 12 340 1.6 3.2 0.00 0.00 0.00 60 1011.9
20260508140815 12 348 4.8 8.0 0.00 0.00 0.00 63 1011.9
20260508135815 11 342 1.6 9.7 0.00 0.00 0.00 66 1012.0
20260508134835 11 0.0 0.0 0.00 0.00 0.00 65 1012.1
20260508133815 11 28 8.0 12.9 0.00 0.00 0.00 67 1012.0
20260508132815 11 302 3.2 6.4 0.00 0.00 0.00 68 1012.1
20260508131815 11 315 3.2 6.4 0.00 0.00 0.00 69 1012.1
20260508130815 10 196 3.2 6.4 0.00 0.00 0.00 70 1012.1
20260508125815 10 279 4.8 9.7 0.00 0.00 0.00 72 1012.0
20260508124815 10 253 4.8 6.4 0.00 0.00 0.00 74 1012.1
20260508123815 9 3 3.2 6.4 0.00 0.00 0.00 76 1012.0
20260508122815 8 292 3.2 4.8 0.00 0.00 0.00 77 1011.9
20260508121816 8 359 3.2 4.8 0.00 0.00 0.00 81 1011.9
20260508120815 7 0.0 0.0 0.00 0.00 0.00 85 1011.9
20260508115815 6 0.0 0.0 0.00 0.00 0.00 87 1011.9
20260508114856 5 0.0 0.0 0.00 0.00 0.00 88 1011.8
20260508113815 5 0.0 0.0 0.00 0.00 0.00 87 1011.8
20260508112836 4 0.0 0.0 0.00 0.00 0.00 87 1011.6
20260508111835 3 0.0 0.0 0.00 0.00 0.00 86 1011.5
20260508110815 3 0.0 0.0 0.00 0.00 0.00 86 1011.4
20260508105815 3 0.0 0.0 0.00 0.00 0.00 86 1011.2
20260508104815 3 0.0 0.0 0.00 0.00 0.00 85 1011.3
20260508103815 3 0.0 0.0 0.00 0.00 0.00 85 1011.2
20260508102815 3 0.0 0.0 0.00 0.00 0.00 84 1011.2
20260508101815 3 0.0 0.0 0.00 0.00 0.00 84 1011.1
20260508100815 3 0.0 0.0 0.00 0.00 0.00 84 1011.2
20260508095815 3 0.0 0.0 0.00 0.00 0.00 84 1011.2
20260508094836 3 0.0 0.0 0.00 0.00 0.00 84 1011.2
20260508093815 3 0.0 0.0 0.00 0.00 0.00 83 1011.3
20260508092815 4 0.0 0.0 0.00 0.00 0.00 83 1011.2
20260508091815 4 0.0 0.0 0.00 0.00 0.00 83 1011.0
20260508090815 4 0.0 0.0 0.00 0.00 0.00 83 1011.0
20260508085815 5 0.0 0.0 0.00 0.00 0.00 83 1011.0
20260508084815 5 0.0 0.0 0.00 0.00 0.00 83 1011.1
20260508083835 5 0.0 0.0 0.00 0.00 0.00 83 1011.2
20260508082815 5 0.0 0.0 0.00 0.00 0.00 83 1011.2
20260508081836 5 0.0 0.0 0.00 0.00 0.00 84 1011.1
20260508080816 5 0.0 0.0 0.00 0.00 0.00 84 1011.4
20260508075815 5 0.0 0.0 0.00 0.00 0.00 84 1011.3
20260508074815 5 0.0 0.0 0.00 0.00 0.00 84 1011.4
20260508073815 5 0.0 0.0 0.00 0.00 0.00 84 1011.3
20260508072815 5 0.0 0.0 0.00 0.00 0.00 83 1011.3
20260508071815 4 224 0.0 1.6 0.00 0.00 0.00 82 1011.3
20260508070815 4 0.0 3.2 0.00 0.00 0.00 82 1011.2
20260508065816 4 0.0 0.0 0.00 0.00 0.00 81 1011.3
20260508064817 5 0.0 0.0 0.00 0.00 0.00 81 1011.4
20260508063816 5 0.0 0.0 0.00 0.00 0.00 80 1011.4
20260508062818 5 0.0 0.0 0.00 0.00 0.00 80 1011.4
20260508061818 5 0.0 0.0 0.00 0.00 0.00 80 1011.4
20260508060839 5 0.0 0.0 0.00 0.00 0.00 80 1011.4
20260508055858 5 0.0 0.0 0.00 0.00 0.00 80 1011.6
20260508054818 5 0.0 0.0 0.00 0.00 0.00 80 1011.7
20260508053817 5 0.0 0.0 0.00 0.00 0.00 79 1011.7
20260508052818 5 0.0 0.0 0.00 0.00 0.00 78 1011.7
20260508051816 5 0.0 0.0 0.00 0.00 0.00 76 1011.7
20260508050818 6 0.0 0.0 0.00 0.00 0.00 75 1011.7
20260508045818 6 0.0 0.0 0.00 0.00 0.00 74 1011.6
20260508044818 6 0.0 0.0 0.00 0.00 0.00 73 1011.6
20260508043818 7 0.0 0.0 0.00 0.00 0.00 72 1011.6
20260508042815 7 0.0 0.0 0.00 0.00 0.00 70 1011.5
20260508041818 7 184 1.6 4.8 0.00 0.00 0.00 69 1011.7
20260508040818 8 217 0.0 1.6 0.00 0.00 0.00 68 1011.6
20260508035816 8 204 0.0 1.6 0.00 0.00 0.00 67 1011.6
20260508034817 9 175 0.0 4.8 0.00 0.00 0.00 66 1011.8
20260508033818 9 222 3.2 6.4 0.00 0.00 0.00 65 1011.8
20260508032818 10 229 3.2 4.8 0.00 0.00 0.00 65 1011.8
20260508031818 10 255 0.0 4.8 0.00 0.00 0.00 64 1011.9
20260508030835 10 254 1.6 4.8 0.00 0.00 0.00 63 1012.1
20260508025818 10 252 3.2 6.4 0.00 0.00 0.00 63 1012.0
20260508024818 10 257 3.2 4.8 0.00 0.00 0.00 62 1012.0
20260508023836 10 224 8.0 14.5 0.00 0.00 0.00 62 1012.1
20260508022815 10 248 3.2 6.4 0.00 0.00 0.00 61 1012.0
20260508021815 10 251 9.7 17.7 0.00 0.00 0.00 61 1012.0
20260508020836 10 247 3.2 6.4 0.00 0.00 0.00 61 1012.1
20260508015815 10 0.0 0.0 0.00 0.00 0.00 61 1012.0
20260508014816 10 240 4.8 9.7 0.00 0.00 0.00 63 1012.0
20260508013815 10 0.0 0.0 0.00 0.00 0.00 61 1011.8
20260508012815 9 304 4.8 8.0 0.00 0.00 0.00 60 1011.5
20260508011815 9 193 1.6 11.3 0.00 0.00 0.00 58 1011.4
20260508010815 9 0.0 0.0 0.00 0.00 0.00 57 1011.2
20260508005836 9 0.0 0.0 0.00 0.00 0.00 55 1011.1
20260508004816 10 0.0 0.0 0.00 0.00 0.00 53 1011.1
20260508003815 10 0.0 0.0 0.00 0.00 0.00 52 1011.0